RH
80 74 66 57 51 48 48 49 51 52 53 54 56 58 61 63 66 68 69 71 74 76 79 83 88 91 93 96 97 98 99 100 99 97 94 91 90 91 92 94 95 96 95 93 91 91 91 87 84 82 83 82 79 77 78 79 79 77 74 72 69 65 62 60 56 49 43 41 41 40 39 39 37 36 36 34 33 31 29 30 29 27 25 23 22
54 49 45 44 46 48 50 53 55 57 60 62 64 67 69 71 73 75 77 80 83 86 90 93 96 97 99 100 101 102 104 104 102 100 98 97 98 100 100 102 102 101 99 97 96 95 93 87 83 81 85 87 85 83 84 84 82 77 74 73 72 68 66 65 63 57 50 46 45 45 44 43 42 40 40 39 36 34 31 30 30 29 27 25 23
50 51 53 54 56 58 60 62 65 67 70 72 75 76 78 79 81 84 87 91 93 95 98 99 100 102 103 101 101 105 107 106 103 102 102 103 103 103 102 102 103 101 100 99 97 95 93 91 87 85 88 90 87 84 83 82 80 79 78 78 79 77 73 72 70 64 58 53 50 50 50 49 47 45 45 45 42 40 37 34 33 33 31 30 27
66 67 68 70 71 73 74 76 77 79 81 84 86 88 90 92 93 95 97 98 100 100 101 101 101 102 102 102 104 107 106 105 105 103 103 104 104 102 101 101 101 101 99 97 96 95 94 93 91 89 89 88 84 82 83 84 86 89 88 87 87 85 81 79 77 72 67 61 57 56 57 57 55 51 51 52 49 46 44 40 37 37 36 35 32
85 86 86 86 87 88 89 90 91 92 93 94 96 97 98 100 101 102 102 102 102 102 101 101 101 102 104 105 106 106 105 104 104 103 101 102 102 101 101 101 101 100 99 98 97 97 95 92 90 89 88 88 86 86 89 92 95 96 94 91 90 88 85 84 83 79 75 70 65 62 62 62 61 57 55 54 52 48 46 43 40 38 37 36 35
97 97 97 97 97 97 97 97 98 98 99 100 101 101 102 102 102 102 102 101 101 100 101 102 102 103 105 105 103 103 103 102 101 101 101 101 101 101 100 101 101 101 100 100 99 97 95 92 91 90 90 92 93 94 95 95 95 95 93 92 92 91 89 88 87 84 80 75 70 65 63 62 61 59 55 53 52 49 45 44 41 39 37 35 34
101 100 101 101 101 101 100 100 101 102 101 101 101 101 101 102 101 101 101 102 102 101 102 103 104 103 103 102 101 101 101 101 100 101 101 100 100 101 101 101 101 101 100 99 98 96 96 97 97 97 97 97 97 96 95 93 91 92 93 93 94 92 91 88 85 83 78 73 69 64 62 60 60 61 59 56 55 53 50 49 46 41 39 37 35
102 101 101 101 101 101 101 101 101 101 101 101 101 101 101 101 101 102 101 101 103 102 101 101 101 101 100 101 101 100 100 100 100 100 101 101 101 101 102 101 101 101 100 99 99 99 101 101 100 99 97 96 96 95 95 94 93 93 93 92 92 89 86 84 80 78 75 71 68 65 64 64 65 68 69 67 65 60 56 54 47 38 33 30 27
102 102 101 102 103 102 102 102 102 102 103 103 101 102 103 101 101 103 101 100 102 101 101 101 100 101 101 101 101 100 101 101 101 101 101 101 101 100 101 101 101 102 101 100 101 101 101 99 97 96 96 96 97 96 96 95 93 92 90 88 87 84 81 79 77 76 76 76 76 74 74 74 73 74 73 68 61 51 43 37 31 23 19 16 14
103 102 101 101 102 101 101 102 102 102 102 102 101 101 102 101 100 101 100 100 101 100 100 101 100 101 101 101 101 101 101 101 100 101 101 100 101 101 102 102 103 103 101 100 100 98 96 95 95 97 98 98 98 96 94 92 89 87 85 83 82 81 81 81 83 84 87 89 86 81 76 70 61 55 49 42 35 29 23 20 17 14 11 10 9
101 101 102 102 103 102 102 101 101 101 101 101 101 100 100 100 101 101 100 101 101 101 101 101 101 102 102 101 101 100 100 101 101 101 103 103 103 104 104 103 101 99 97 96 96 94 94 97 99 98 98 95 92 90 87 86 84 84 85 85 86 87 88 89 88 86 82 76 67 57 48 39 32 28 25 22 21 20 18 17 15 12 11 10 9
87 91 94 97 100 100 102 102 102 102 102 102 101 101 102 101 101 101 101 101 100 101 102 102 101 102 102 101 102 102 102 103 103 102 103 104 104 105 104 101 99 98 97 98 99 98 97 97 95 92 90 88 87 86 85 85 86 86 86 85 82 78 73 68 61 54 47 40 33 27 23 20 19 19 19 20 20 20 20 19 16 14 12 12 11
79 84 88 92 95 98 100 103 103 103 104 105 103 102 102 102 101 102 102 102 102 102 103 104 102 103 103 102 102 101 101 102 102 102 103 104 105 105 104 103 103 102 101 101 99 95 92 91 89 87 87 86 85 82 77 73 69 64 58 53 47 42 37 33 29 26 24 23 21 20 18 19 19 18 19 21 22 22 22 21 20 17 15 15 14
80 85 89 93 97 100 102 104 105 105 104 105 104 103 103 103 103 103 101 101 102 101 101 101 100 99 100 99 98 98 100 101 102 103 104 104 104 104 104 104 103 102 100 98 95 91 88 85 81 77 72 66 59 51 44 38 33 30 27 24 23 22 21 21 21 21 21 21 20 19 18 19 21 20 22 25 26 26 25 23 23 22 20 18 18
91 95 98 101 103 104 105 105 104 104 103 102 101 101 100 99 98 97 96 96 96 96 96 97 98 99 99 99 99 100 101 102 102 102 101 101 102 103 105 105 103 101 96 90 82 74 65 57 49 41 34 29 25 21 19 19 19 20 21 21 22 22 21 22 21 21 22 21 20 20 20 21 23 23 26 30 33 31 28 26 25 24 23 22 22
94 96 97 98 98 98 97 96 95 95 94 94 94 94 94 94 94 93 94 95 95 96 97 98 99 100 100 101 101 101 101 102 103 103 104 104 105 104 101 96 88 78 66 54 43 34 27 22 18 17 16 15 15 16 18 19 21 22 23 24 24 24 23 22 22 23 23 23 22 23 23 25 26 28 31 35 38 35 30 27 27 27 27 27 27
94 96 97 97 99 100 99 99 99 98 99 99 100 100 100 101 101 101 102 104 104 104 104 105 105 105 105 105 104 103 101 100 99 96 91 87 82 73 62 52 42 32 24 18 15 14 14 15 16 16 17 18 19 20 22 23 23 24 25 25 25 25 23 23 24 25 25 25 26 27 30 32 32 34 36 38 40 39 33 29 29 31 30 30 30
79 79 80 80 81 83 82 82 81 80 81 82 81 82 83 85 86 86 86 88 88 87 88 88 87 85 82 78 73 69 64 59 55 49 42 38 33 27 22 19 16 15 14 14 15 16 17 19 20 21 22 22 22 23 25 26 27 25 25 25 25 25 25 26 27 28 28 30 31 32 35 37 38 40 41 42 43 44 39 33 31 31 32 32 33
34 34 33 33 33 33 33 33 33 34 35 35 36 37 37 38 39 39 39 40 39 38 38 38 37 34 31 29 26 24 22 20 19 17 16 16 17 16 17 18 18 18 17 18 19 20 21 23 24 24 24 24 24 25 27 28 29 30 30 28 25 24 27 30 30 30 31 33 36 40 45 48 51 52 50 48 47 46 43 37 33 32 32 32 40
14 14 14 14 14 14 14 14 15 15 15 15 15 15 15 15 15 15 15 15 15 14 14 14 15 14 14 14 15 15 15 16 17 17 18 19 20 21 21 21 21 20 19 19 21 23 24 24 24 24 25 25 25 26 29 33 37 38 35 30 29 31 32 31 30 32 37 42 50 59 66 68 68 64 59 55 51 47 44 40 36 35 34 37 52
15 15 15 15 15 15 15 15 15 15 15 15 15 15 15 15 15 15 15 15 16 16 16 17 17 17 18 18 19 19 20 20 20 20 20 22 23 24 24 23 22 20 19 20 21 23 23 23 23 25 26 27 29 31 35 41 43 41 38 40 44 43 36 31 34 42 52 60 65 69 73 75 74 69 63 58 53 50 47 45 43 41 40 47 62
19 19 19 19 19 19 19 19 19 19 19 19 19 19 20 20 20 20 20 20 20 20 21 21 21 21 21 21 21 22 21 21 21 20 21 22 23 24 24 22 20 18 19 21 22 22 23 23 25 27 30 34 38 40 43 46 46 47 51 56 55 47 40 41 48 54 58 63 66 66 70 74 73 68 63 59 56 54 52 54 56 55 54 60 65
24 24 24 24 24 24 24 23 24 24 23 24 24 24 24 24 24 24 23 23 23 23 22 22 22 21 21 21 21 22 22 21 21 20 20 21 21 22 23 21 19 18 20 22 23 24 25 27 29 33 38 43 48 50 52 55 57 59 64 66 64 61 60 60 61 60 61 64 69 71 74 77 73 65 61 61 62 62 62 67 74 73 70 68 64
29 29 29 29 29 29 29 29 28 28 28 28 27 27 27 26 26 26 25 24 24 23 22 22 22 21 21 21 22 22 21 20 19 19 19 20 21 22 24 23 22 22 23 25 27 29 30 33 37 41 44 49 57 63 67 70 72 72 74 78 80 79 75 71 69 69 68 68 71 70 71 73 73 68 66 68 71 74 76 82 86 83 75 68 67
32 33 32 32 32 32 31 31 30 30 29 28 28 27 26 26 25 24 24 23 23 22 22 22 21 20 20 20 21 22 22 21 22 23 23 24 26 27 29 29 29 29 29 29 31 34 37 40 42 43 47 56 66 75 82 87 89 87 86 87 86 83 78 75 74 73 69 67 67 65 67 74 79 81 81 80 81 86 89 90 90 84 73 68 76
34 34 34 34 33 32 31 31 29 29 28 26 26 25 25 25 24 24 24 23 22 21 21 21 21 22 22 24 28 32 33 33 33 34 34 35 36 36 37 38 37 36 35 35 37 40 43 43 43 46 54 67 79 89 98 103 102 95 88 84 83 81 79 75 72 68 67 67 67 68 74 83 89 96 100 94 91 94 95 90 88 84 76 77 89
31 31 31 31 30 29 29 27 27 26 26 25 25 25 24 23 22 22 22 22 22 24 26 28 31 33 34 37 43 49 52 50 48 49 50 49 49 48 48 49 47 45 42 41 41 44 46 46 48 56 69 84 96 104 108 106 102 95 88 84 82 82 80 75 70 68 70 73 74 78 87 95 99 105 110 104 96 95 92 86 87 90 90 93 99
28 29 28 28 27 27 26 26 26 25 24 24 24 23 23 24 25 27 29 30 32 36 38 41 43 43 43 45 50 57 61 59 57 59 62 62 62 63 63 62 59 52 46 44 47 49 50 53 61 72 86 99 107 109 106 102 99 97 94 90 86 84 85 84 80 81 83 84 84 87 95 103 107 110 111 105 95 91 89 88 91 98 101 103 104
27 26 26 25 25 24 24 23 23 22 23 24 26 29 32 34 37 41 43 42 43 45 47 50 52 53 52 52 55 61 64 62 59 61 66 71 72 74 75 75 67 56 48 49 53 55 59 67 77 87 97 103 106 105 103 101 100 100 100 98 93 90 90 91 91 93 95 92 91 96 102 107 108 107 106 101 93 90 94 98 100 103 104 102 103
24 24 24 23 23 23 24 25 27 29 32 35 38 42 45 46 46 49 52 55 57 58 60 62 64 65 64 64 65 67 71 71 65 61 64 73 78 80 84 82 71 59 53 55 59 64 72 81 88 93 98 100 101 103 103 102 101 102 102 103 101 94 91 92 96 99 101 100 101 105 106 106 104 101 99 97 94 94 100 103 102 102 102 101 102
23 24 26 28 30 33 35 37 40 42 43 45 46 49 52 56 58 59 61 66 71 73 74 73 75 75 74 72 72 73 77 82 78 67 65 72 79 85 88 85 75 64 60 62 67 74 83 89 93 95 98 99 99 101 102 103 104 105 104 105 103 98 94 97 102 106 108 109 109 108 106 104 103 101 99 99 98 98 101 103 100 100 101 100 101
33 36 38 40 42 44 45 46 47 48 50 51 53 56 60 67 74 77 78 77 78 82 84 84 84 85 83 81 79 78 82 88 88 80 71 69 78 89 92 86 79 72 66 68 77 85 89 93 96 99 99 98 98 100 105 108 109 109 108 108 106 104 104 106 110 112 111 110 109 107 106 105 104 102 102 102 101 100 100 101 100 100 101 101 101
42 43 44 45 46 48 49 51 53 56 59 62 65 68 71 75 82 89 94 93 91 90 91 90 89 91 91 88 84 84 87 91 94 92 80 69 74 88 93 90 87 80 72 75 86 92 94 96 100 101 100 98 99 102 109 114 113 111 110 110 108 108 111 111 111 111 109 108 107 106 105 104 104 103 102 103 102 100 100 102 101 101 100 100 102
46 48 49 51 53 56 60 63 66 69 72 75 77 80 83 85 88 92 100 105 104 101 98 93 89 88 91 91 88 88 92 95 97 98 90 77 73 81 90 96 95 87 79 83 90 94 96 99 101 101 100 99 100 105 111 115 114 111 110 110 108 109 111 111 109 106 104 102 103 104 104 104 102 101 102 103 103 101 102 103 103 103 102 100 100
59 61 63 64 65 69 72 76 78 80 82 85 87 88 90 92 93 95 100 106 108 109 107 101 89 78 78 84 87 90 95 99 99 99 96 87 78 76 85 97 101 92 87 90 94 96 100 103 102 100 99 99 103 108 111 110 109 108 109 109 110 111 111 107 103 101 101 101 102 102 102 101 101 101 101 102 102 102 102 102 104 107 106 103 101
70 72 74 75 77 78 81 83 85 85 87 89 91 93 95 97 99 101 103 105 106 108 109 107 95 78 68 69 76 83 91 98 102 101 98 93 84 77 83 97 104 97 91 94 98 101 105 106 103 100 100 101 105 109 108 105 104 105 105 105 107 111 111 106 101 100 101 101 101 101 100 100 101 101 101 101 101 102 102 102 106 111 109 104 102
73 75 78 80 82 84 87 89 91 91 92 93 94 96 98 100 100 100 99 98 96 96 95 94 91 82 71 65 67 74 82 91 99 102 101 97 88 78 79 93 105 103 96 96 99 102 105 107 103 100 100 103 107 109 106 101 100 100 101 101 103 108 111 108 103 101 101 101 101 100 100 100 100 100 101 101 101 101 101 102 106 111 109 104 102
80 82 84 86 88 90 93 95 96 95 93 92 89 88 87 87 86 84 82 80 79 79 79 79 79 79 76 69 67 71 77 83 90 96 99 99 92 81 76 88 104 109 104 99 99 102 106 108 107 101 99 102 108 109 104 99 99 100 99 99 99 103 108 109 104 100 101 103 102 100 100 101 101 100 100 101 100 102 104 104 103 105 107 107 108
84 84 83 81 80 80 80 81 81 79 77 74 70 68 66 65 65 64 64 64 65 66 67 68 69 72 74 72 69 72 77 80 84 90 95 96 92 82 76 85 102 112 109 105 104 105 107 109 109 105 99 101 107 109 103 99 99 100 100 100 99 100 105 108 106 103 104 105 102 100 100 101 101 101 101 101 101 102 103 103 102 101 102 103 107
64 64 63 61 60 59 58 58 58 58 57 56 55 55 54 54 55 56 56 57 58 59 60 61 63 67 72 73 73 75 78 80 84 89 92 91 88 81 75 83 100 112 113 111 110 109 109 111 110 106 101 98 101 106 107 105 104 102 102 102 101 100 102 106 107 107 109 109 108 106 105 103 101 101 101 101 101 100 101 102 102 102 101 101 104
47 48 49 49 49 49 50 50 50 51 52 53 54 54 55 55 56 56 56 56 57 57 57 58 61 66 71 75 77 78 80 81 83 87 89 88 84 77 73 81 98 111 114 113 111 111 112 111 107 103 100 97 96 101 109 112 110 106 103 102 102 102 104 107 107 107 109 110 110 110 110 109 107 105 103 103 103 102 101 102 102 102 103 105 108
45 46 46 47 48 49 51 52 53 54 55 56 58 60 61 61 60 59 58 58 58 58 58 59 63 69 74 77 78 81 83 83 83 85 87 85 79 72 71 81 96 106 108 108 109 110 111 108 102 98 97 96 94 97 102 106 108 108 105 104 106 108 109 109 108 107 107 106 107 108 109 110 111 110 109 108 108 107 105 105 105 106 106 106 106
47 47 48 49 51 54 56 58 60 60 60 61 61 62 63 64 62 61 60 59 59 59 60 62 66 73 77 77 78 83 86 85 83 83 83 81 74 69 71 83 95 102 103 105 108 109 107 102 98 97 96 96 97 98 100 102 104 105 106 108 109 110 109 108 108 108 105 104 106 108 108 109 111 111 110 108 109 109 109 110 110 110 110 109 108
53 53 53 53 53 53 54 55 56 57 56 56 56 58 59 60 60 59 58 58 58 59 61 65 70 76 79 79 81 85 87 85 82 82 81 77 69 66 74 87 97 101 104 107 108 105 100 97 99 100 99 98 98 99 100 103 106 108 111 114 112 108 107 109 109 107 105 103 103 104 105 104 105 105 104 104 105 107 109 110 111 111 111 110 108
54 54 52 51 50 49 49 49 49 49 49 48 49 51 53 54 55 55 55 54 55 57 62 68 73 78 81 83 85 87 86 83 81 81 78 70 64 68 81 93 100 103 107 107 104 100 98 99 102 101 99 98 101 104 106 110 111 110 111 112 109 106 106 106 104 102 102 101 101 101 102 102 103 105 105 104 105 107 108 109 109 109 108 107 106
51 51 50 50 51 51 51 50 50 50 49 48 47 48 49 51 52 52 51 51 53 58 65 72 76 81 86 89 88 86 84 81 81 78 71 64 64 75 88 97 103 106 106 102 99 99 101 102 103 102 102 105 108 108 108 108 108 106 105 106 107 106 104 102 101 102 103 104 104 103 102 102 105 107 107 103 99 98 100 103 106 107 106 104 103
50 50 51 52 52 53 53 54 53 53 53 51 49 48 50 51 51 49 48 50 55 63 71 78 83 88 92 91 87 84 82 80 77 72 64 62 69 81 92 100 105 105 101 98 99 103 105 106 107 107 108 108 106 104 102 102 102 102 103 104 103 102 100 101 103 105 105 105 104 102 100 100 102 103 104 102 93 83 79 84 93 101 105 105 104
50 50 49 49 50 50 51 53 54 54 53 52 50 50 50 50 49 49 51 57 66 75 83 89 93 94 92 88 84 81 79 76 71 65 61 64 74 86 96 103 104 101 99 101 105 108 109 110 110 107 105 102 101 100 101 100 100 101 102 102 101 101 102 102 102 101 101 101 102 102 102 102 101 100 102 103 95 79 64 61 70 84 97 103 104
49 46 45 45 46 46 47 49 51 52 51 50 50 50 50 50 53 58 65 74 84 91 94 95 94 91 86 82 79 76 73 69 65 61 60 67 79 92 101 103 101 101 105 110 112 112 112 110 105 102 100 100 100 101 101 101 101 101 101 101 101 101 100 99 99 100 102 103 103 104 105 105 103 101 101 103 100 88 69 54 51 62 79 95 103
51 48 45 44 43 43 44 45 47 48 49 50 51 53 57 63 70 79 87 93 97 97 95 91 87 83 79 76 72 69 67 64 61 58 63 75 90 99 102 102 104 108 112 113 113 112 109 104 100 100 101 101 101 101 100 100 101 101 101 101 101 101 101 102 104 104 104 103 102 102 102 102 102 101 100 101 102 100 89 74 61 55 62 76 90
58 55 52 50 48 47 47 48 50 53 57 61 66 72 79 86 92 96 98 97 94 90 86 82 78 74 70 67 65 65 64 61 58 62 74 89 99 103 104 107 111 113 112 110 109 107 104 100 100 101 101 100 100 101 101 101 102 101 101 102 102 101 102 103 103 101 102 102 102 101 101 101 101 101 101 100 101 101 100 96 87 76 71 72 77
Wind_Speed
66 67 67 67 67 67 67 68 69 71 72 74 76 78 79 79 80 81 82 83 84 85 86 87 88 89 90 90 91 91 92 93 94 95 95 96 96 97 97 97 97 97 96 96 96 96 96 96 95 94 95 96 96 96 97 97 98 98 99 99 99 100 99 100 101 99 96 94 96 97 97 96 96 96 96 96 96 96 95 94 95 95 95 95 95
68 68 69 68 68 68 69 70 71 73 75 76 78 79 80 81 81 83 84 85 86 87 88 88 89 90 91 92 92 93 94 95 96 97 97 98 98 98 98 98 98 97 97 97 97 97 98 97 96 95 96 98 98 98 98 99 100 101 100 101 101 101 102 102 103 104 102 99 99 100 100 99 98 98 99 99 99 100 99 98 98 98 98 99 99
69 70 70 71 72 72 73 73 74 75 77 78 79 80 82 83 84 85 86 87 88 88 89 90 91 92 92 93 94 95 96 97 98 99 99 99 99 99 99 98 98 98 98 98 98 98 98 98 98 97 98 100 101 100 100 101 102 102 102 102 103 104 104 105 106 107 106 103 102 102 102 102 101 101 102 102 101 102 103 102 101 101 102 102 103
70 71 72 73 74 75 76 76 77 78 79 80 81 82 84 85 87 88 89 89 90 91 91 92 93 94 95 96 97 98 99 99 99 100 100 99 99 99 99 99 99 99 99 99 99 99 99 100 100 101 101 102 103 102 102 102 103 104 104 104 105 106 106 107 108 108 108 106 104 104 104 104 104 103 103 104 104 104 105 106 105 104 105 106 106
71 72 73 74 76 77 78 79 80 80 81 82 83 85 86 88 89 90 91 92 93 94 94 95 96 97 98 99 100 100 100 100 99 99 99 99 99 99 100 100 100 100 100 100 101 101 102 103 103 103 104 104 104 103 103 104 104 105 106 106 107 108 108 108 109 110 110 109 108 106 106 107 107 106 105 106 107 107 107 108 108 108 108 109 109
72 74 75 76 77 78 80 81 82 83 84 85 86 88 89 90 92 93 94 95 95 96 97 98 99 100 100 100 100 99 99 99 99 99 99 99 100 100 101 101 102 102 103 103 104 104 105 105 105 105 105 105 105 105 105 105 106 107 108 108 108 109 109 110 110 111 111 111 110 110 109 109 109 109 108 108 109 110 110 111 112 112 112 112 112
74 75 76 78 79 80 82 83 84 86 87 88 89 90 91 93 94 95 96 97 98 99 100 100 101 100 100 99 99 98 98 98 99 99 100 100 101 102 103 104 105 105 106 106 106 106 106 106 106 106 106 107 107 107 107 108 108 108 109 109 110 111 111 111 112 112 113 113 113 112 111 111 112 111 111 110 111 112 113 113 114 114 114 115 115
76 77 78 80 81 82 83 85 86 88 89 90 91 93 94 95 96 97 99 99 100 100 100 100 99 99 99 98 99 99 99 100 100 101 102 103 104 105 106 107 108 108 108 108 108 108 107 107 107 108 108 108 108 109 109 110 110 110 110 111 111 111 112 112 112 113 114 114 114 114 113 113 113 113 112 112 112 112 113 114 115 114 114 114 114
79 80 81 83 84 85 87 88 89 91 92 93 94 95 96 97 97 98 99 99 99 99 99 99 99 99 99 100 100 101 101 102 103 104 105 106 107 108 109 109 110 110 110 109 109 109 109 109 109 109 109 110 110 110 110 111 111 111 111 111 111 112 112 113 113 114 114 114 114 114 114 114 114 113 112 111 110 110 110 111 112 112 111 111 110
82 83 84 85 87 88 89 90 91 92 93 94 95 95 96 96 97 97 98 98 99 99 99 100 101 101 102 102 103 103 104 104 105 106 107 108 109 110 111 111 112 112 112 111 110 110 110 110 110 110 111 111 111 111 111 111 111 111 111 112 112 112 113 113 114 114 114 114 114 114 113 113 112 111 109 107 106 105 105 106 106 106 106 105 103
85 86 87 88 89 90 91 92 92 93 94 95 96 96 97 98 98 99 100 100 101 101 102 103 103 104 104 104 105 105 106 106 107 108 109 110 111 112 113 113 113 113 113 113 111 111 111 111 111 111 111 111 111 110 110 110 111 111 112 113 113 113 113 113 113 112 112 111 111 110 110 108 107 105 103 101 100 98 98 98 98 97 97 96 93
87 89 90 90 91 92 93 94 95 96 96 97 98 99 99 100 101 101 102 103 103 104 104 105 105 106 106 106 107 107 108 108 109 110 110 111 112 113 114 114 114 114 114 113 112 111 112 111 112 112 112 111 111 111 111 111 112 112 112 113 112 112 111 110 109 108 107 106 105 104 103 102 99 97 95 93 92 91 90 90 90 89 88 87 85
90 91 92 93 94 95 96 96 97 98 99 99 100 101 101 102 103 103 104 104 105 105 106 106 107 107 108 108 108 108 109 109 110 110 111 111 112 113 114 115 115 115 114 113 113 112 112 112 112 113 113 112 112 112 112 111 111 111 111 110 109 107 106 104 103 101 100 98 98 97 95 93 91 89 87 85 84 83 83 84 83 82 81 80 78
94 95 96 97 97 98 99 99 100 100 101 102 102 103 103 104 105 105 106 106 106 107 107 108 109 109 109 110 110 109 109 110 110 110 111 111 112 113 115 116 116 116 115 114 114 113 114 114 114 113 113 112 111 110 109 107 106 105 104 103 102 100 98 96 94 93 92 91 90 89 87 86 84 82 80 78 78 78 78 78 77 76 75 74 73
98 99 99 100 101 102 102 103 103 104 104 105 106 106 107 107 108 108 109 109 109 109 110 110 110 110 111 111 111 110 110 110 111 111 111 112 113 114 115 116 116 116 116 115 114 114 114 113 112 111 109 106 104 103 101 99 98 97 96 94 93 92 90 88 87 85 85 85 84 83 82 80 78 76 74 72 72 73 74 73 72 71 69 68 65
101 102 103 103 104 105 105 106 106 107 107 108 108 108 109 109 110 110 111 111 111 111 111 111 111 111 111 111 111 111 110 111 111 111 111 112 113 114 115 115 116 115 114 112 111 110 108 107 105 103 100 98 96 94 93 92 91 90 89 88 86 85 84 82 81 80 79 79 79 78 77 75 73 71 69 67 67 68 70 68 65 64 63 60 56
104 105 105 106 106 107 107 107 108 108 109 109 109 110 110 110 110 111 111 111 111 111 111 111 111 110 110 111 111 110 110 110 111 111 111 111 111 112 112 112 111 109 107 104 102 101 99 98 96 95 93 90 89 88 88 87 87 86 84 82 80 79 78 76 75 75 74 74 74 73 72 70 67 65 64 63 63 65 65 62 58 57 57 54 50
106 106 107 107 107 108 108 108 108 109 109 109 109 109 109 109 109 110 110 109 109 109 109 109 109 109 109 109 109 108 108 107 107 106 105 105 105 105 104 103 102 100 98 95 94 93 92 91 90 89 88 86 85 84 83 83 83 82 79 77 75 73 72 71 70 70 70 70 69 67 65 63 62 60 60 59 59 59 60 56 52 52 52 49 46
104 104 105 105 105 105 106 106 106 106 106 106 106 106 106 106 106 106 106 105 105 105 105 104 104 103 103 102 102 101 100 99 98 97 96 95 96 96 96 95 94 93 91 90 89 88 87 86 86 85 84 82 80 79 78 77 77 76 74 73 71 69 67 66 66 66 65 64 63 61 59 57 57 56 56 56 55 54 54 53 50 49 48 44 42
99 99 99 99 99 99 99 99 99 99 99 99 99 99 99 98 98 98 98 97 97 96 96 95 94 94 93 93 92 92 91 90 90 90 89 89 89 90 91 90 90 89 88 86 85 84 83 82 82 81 79 77 75 73 72 71 71 71 70 68 66 64 62 61 60 59 58 56 55 54 53 53 53 53 53 52 51 50 50 50 48 46 43 40 38
92 92 92 92 92 92 92 92 92 92 91 91 91 91 91 90 90 90 89 89 89 89 88 88 88 87 87 87 87 87 87 87 86 86 85 85 85 86 87 87 87 86 84 82 80 80 79 78 77 75 74 72 70 68 66 66 66 66 64 61 59 59 58 56 54 52 50 50 49 49 50 50 51 51 50 48 47 47 47 46 44 43 40 37 35
87 87 87 87 87 87 87 87 87 86 86 86 86 86 86 86 86 86 86 85 85 85 85 86 85 85 85 85 85 84 85 84 84 83 82 81 81 82 82 83 83 81 79 77 76 75 74 73 71 70 68 66 64 62 61 61 61 59 56 55 55 55 54 51 49 48 47 46 46 46 47 47 47 47 45 44 43 44 43 42 40 39 37 35 34
84 84 84 84 84 84 84 84 84 84 84 84 84 84 84 84 84 84 84 84 84 84 84 84 84 83 83 82 82 82 82 81 80 79 78 78 77 77 77 78 78 75 72 71 70 68 67 65 63 62 60 59 57 55 55 54 53 51 50 50 51 50 49 48 47 46 45 44 43 43 42 43 43 43 41 40 40 40 39 38 38 37 36 35 34
83 83 83 82 82 82 82 83 83 83 83 83 83 83 83 83 83 83 83 83 83 82 82 82 81 80 79 78 78 77 77 76 75 74 73 72 71 70 70 70 69 67 64 63 61 59 57 56 54 53 52 50 49 48 48 48 48 47 47 47 46 46 47 46 45 43 42 41 40 39 38 38 40 40 38 37 36 36 36 35 36 36 35 35 34
81 81 81 81 81 81 81 81 81 81 81 81 81 81 81 81 81 81 81 80 80 79 78 78 77 76 74 72 71 71 70 68 67 66 65 63 62 61 61 60 58 57 55 53 52 50 49 48 48 47 45 43 41 41 42 43 44 44 43 43 43 43 44 43 42 40 39 37 35 34 33 34 35 36 35 35 34 34 34 34 35 35 35 35 35
79 79 79 79 79 79 79 79 79 80 80 80 80 79 79 78 78 77 77 76 75 74 73 71 70 68 66 63 61 61 61 59 57 56 55 54 53 52 51 50 50 49 48 47 46 45 44 43 42 41 39 37 37 37 38 39 40 41 41 40 40 41 40 39 38 36 34 33 31 30 30 30 31 32 33 33 32 32 33 33 34 35 35 35 34
78 78 78 78 78 78 78 78 77 77 77 77 77 76 76 75 73 72 71 69 68 66 64 62 60 59 57 55 53 53 54 53 51 49 49 48 47 47 46 45 45 45 44 44 42 40 39 37 35 34 33 33 33 34 35 36 37 38 38 38 37 37 36 35 33 31 30 29 27 27 27 28 29 30 31 32 31 31 32 33 33 34 34 34 34
77 76 76 76 76 75 75 74 74 73 73 72 71 70 69 68 65 63 62 60 59 57 56 55 55 54 53 51 50 50 51 51 49 47 46 46 44 44 43 42 42 42 41 39 37 34 32 30 29 29 30 30 31 32 33 34 34 34 35 35 34 33 31 30 28 27 26 25 24 24 25 26 27 29 30 31 30 30 31 32 32 33 33 33 33
74 73 73 73 72 71 71 70 69 67 66 64 63 61 60 59 56 55 55 54 53 52 52 52 52 53 52 50 49 49 50 50 49 46 45 44 43 42 41 40 40 39 37 34 32 30 28 27 26 27 28 29 29 30 31 32 32 31 32 32 31 29 27 25 24 23 22 22 22 23 24 26 27 28 29 29 29 29 29 30 31 31 32 31 31
69 69 68 68 66 65 64 62 61 59 57 56 55 54 54 54 53 51 51 52 52 52 51 51 52 52 51 49 48 47 47 48 48 46 44 43 42 40 39 39 38 36 33 30 29 27 25 25 25 26 27 27 27 28 29 29 29 29 29 28 27 26 23 21 21 20 20 20 21 22 24 25 26 27 27 28 28 28 28 29 29 30 30 30 31
63 62 61 60 59 57 56 55 54 53 52 52 51 50 51 52 53 52 51 51 52 52 52 52 52 52 51 49 47 46 45 46 47 46 43 42 40 38 37 37 36 33 30 28 27 25 24 24 25 25 26 26 25 26 26 27 27 27 26 26 24 23 21 19 19 19 19 20 21 22 23 23 24 25 26 26 26 26 26 27 28 29 29 29 30
55 55 54 54 53 53 52 52 51 51 51 50 50 50 50 51 53 54 54 53 53 53 53 53 52 52 51 50 47 45 43 43 44 44 42 40 38 37 36 36 33 30 28 26 25 24 24 23 24 25 25 25 24 24 24 25 25 24 23 23 22 20 20 19 18 18 18 19 20 20 21 22 23 24 24 24 25 25 25 26 27 27 28 29 29
52 52 52 52 52 52 52 52 52 52 52 52 52 52 52 52 52 54 55 55 54 54 54 54 53 51 50 49 47 44 42 40 41 41 41 38 36 35 35 34 31 28 26 25 24 23 23 23 23 24 24 23 22 22 22 22 22 21 21 20 20 19 18 17 17 16 17 18 18 19 21 21 22 22 22 23 23 23 24 24 25 26 27 28 28
52 53 53 53 53 53 54 54 54 54 54 54 54 54 54 53 53 52 52 53 54 55 55 55 53 50 48 47 45 43 40 38 38 38 38 36 34 33 33 32 30 27 25 24 23 23 22 22 23 22 22 22 21 21 20 20 19 18 18 18 18 16 15 15 15 15 16 17 18 19 19 20 20 20 21 21 21 22 22 23 24 24 25 26 27
55 55 56 56 55 55 56 56 56 55 55 55 54 53 53 53 52 52 51 51 52 53 54 55 53 49 46 43 42 40 38 37 36 35 35 34 33 32 31 30 28 26 24 24 23 22 22 22 21 21 21 21 20 19 18 17 16 16 16 15 15 14 13 13 14 14 15 16 17 18 18 18 19 19 19 19 20 21 21 22 22 23 24 25 26
56 56 57 57 57 56 56 56 56 55 54 54 53 53 53 53 53 52 52 52 52 51 51 51 51 48 44 41 39 37 35 34 34 33 33 32 32 31 29 28 27 25 24 23 23 22 21 21 20 20 20 19 19 17 16 15 14 14 14 13 13 12 11 12 13 13 14 16 16 16 17 17 18 18 18 18 19 20 20 21 22 22 23 24 25
56 56 56 56 56 56 55 55 55 55 55 54 54 54 54 54 54 53 52 51 50 49 47 46 46 45 43 40 37 35 33 31 31 31 31 31 30 29 28 27 26 25 23 22 22 21 20 20 19 19 19 18 17 16 15 14 13 12 12 12 11 10 11 11 12 13 14 15 15 15 16 16 16 17 17 18 18 19 20 21 21 22 23 23 24
56 56 56 56 55 55 56 56 56 57 56 56 56 55 54 54 53 52 50 49 47 45 44 42 41 40 39 37 35 33 31 29 28 28 28 29 29 28 27 25 25 24 23 21 20 20 19 19 19 18 18 18 17 15 14 13 13 12 12 11 10 10 10 11 12 13 14 14 14 15 15 16 16 17 17 18 18 19 20 21 21 21 22 22 23
57 57 57 57 56 56 56 56 56 56 55 55 54 53 52 50 49 48 47 45 44 42 40 39 37 36 36 34 32 30 29 28 26 25 25 26 26 26 25 24 24 23 22 20 19 19 18 18 18 18 18 17 16 15 14 14 13 13 12 11 10 10 10 11 12 14 14 15 15 15 16 16 17 17 18 18 19 19 20 20 20 21 21 21 22
55 55 55 55 54 54 54 53 53 52 52 51 50 49 48 47 46 45 44 43 41 40 38 36 34 33 32 31 29 27 26 25 24 23 23 23 24 24 24 23 23 22 20 19 18 18 18 18 17 17 17 17 16 15 15 14 14 13 13 12 11 11 10 11 13 14 15 15 15 16 16 17 18 18 18 18 19 19 19 20 20 20 20 21 21
53 52 52 52 52 51 51 51 50 49 48 47 47 46 45 44 43 42 41 40 38 37 35 33 31 30 29 27 25 25 24 23 21 21 21 21 21 22 22 21 20 19 18 17 17 16 16 16 16 16 16 16 15 15 15 15 15 14 13 12 12 11 11 12 13 14 14 15 16 16 16 17 17 18 18 18 18 19 19 20 20 20 21 21 21
51 51 50 50 49 48 47 47 46 45 44 42 41 40 40 39 38 37 36 35 34 33 31 30 28 26 25 23 22 21 21 20 19 18 18 19 19 19 19 18 18 17 16 15 15 14 14 15 14 14 14 14 15 15 15 15 15 14 13 12 12 12 12 12 13 13 14 14 15 15 15 15 16 17 18 18 19 19 20 20 21 21 21 21 21
49 48 47 46 45 43 42 41 40 39 38 36 35 34 33 33 32 31 31 30 28 27 26 25 24 22 21 19 18 18 18 17 16 16 16 17 17 17 16 16 15 14 13 13 13 13 13 13 12 11 12 13 14 14 14 14 13 12 11 11 11 11 11 12 12 12 13 13 13 13 14 14 15 16 17 18 19 20 20 21 21 21 21 21 21
45 44 42 41 40 38 37 35 34 33 32 31 29 29 28 27 26 26 25 24 23 22 21 20 19 17 16 15 15 14 14 14 14 14 15 15 15 15 14 13 12 11 11 11 11 11 11 10 10 10 11 12 12 12 12 12 11 10 9 9 9 9 10 10 10 11 11 11 11 12 13 13 14 15 16 17 18 19 20 21 21 21 21 21 21
41 40 38 37 35 34 32 30 29 28 27 25 24 23 23 22 21 20 19 18 17 16 15 14 13 12 12 12 12 11 12 12 13 13 13 13 13 13 12 11 10 9 9 10 10 10 9 8 9 9 10 10 10 9 9 9 8 7 7 7 7 7 7 8 9 9 9 9 9 10 10 11 12 13 15 16 18 19 20 21 21 21 21 21 21
38 36 35 33 31 30 28 27 25 23 22 21 20 18 17 17 16 14 13 12 11 10 9 9 8 9 9 9 10 10 11 12 12 12 13 13 13 12 10 10 9 9 10 10 10 9 8 8 9 9 9 8 8 7 7 6 6 6 5 6 6 6 6 6 7 7 6 6 7 7 7 8 9 11 12 14 16 18 20 20 21 21 21 21 21
34 33 31 30 28 27 25 23 21 19 18 16 15 13 12 11 10 9 8 6 4 4 4 6 7 8 9 9 10 12 13 12 12 13 14 14 12 11 10 10 10 10 10 10 9 9 9 9 9 9 8 8 7 7 7 6 6 6 6 6 6 6 5 5 5 5 5 5 6 6 6 6 7 7 9 11 13 16 18 20 21 21 20 20 20
31 30 28 26 24 23 21 19 17 15 13 12 11 9 8 6 5 4 2 1 3 5 7 8 9 10 11 12 13 13 13 13 14 15 15 14 12 12 11 11 11 11 11 10 10 10 10 10 10 10 9 9 8 8 8 7 7 7 7 7 6 6 6 5 5 4 5 5 5 5 5 5 5 5 5 6 8 10 14 17 20 21 21 20 20
29 27 25 24 22 20 18 16 14 13 11 10 9 7 6 6 5 6 7 8 10 11 12 12 13 14 15 15 15 14 14 15 16 16 15 14 14 13 13 13 12 12 12 12 12 12 12 11 11 11 11 10 10 8 8 8 8 8 8 8 7 6 5 4 4 3 4 4 3 3 3 3 3 3 2 2 2 4 7 11 15 18 20 20 20
28 26 25 23 21 19 17 16 14 13 12 12 11 11 11 11 12 13 14 15 15 15 16 16 17 17 16 16 16 16 17 18 18 17 16 16 15 15 14 14 14 14 14 14 14 13 13 13 13 13 12 10 9 8 8 9 10 9 9 7 6 5 4 3 3 4 4 4 4 4 3 3 3 3 3 3 4 5 5 7 10 13 16 18 19
28 27 25 24 22 21 20 19 18 18 17 17 17 17 18 18 18 19 19 19 19 19 19 19 19 18 18 18 18 19 20 20 19 19 18 17 17 16 16 16 16 16 16 16 15 15 15 15 14 13 11 9 9 9 10 11 10 9 7 6 5 5 5 5 5 5 5 5 5 5 5 5 4 4 4 5 6 7 8 9 10 11 12 14 15
Wind_Direction
273 273 273 273 273 272 272 271 271 271 271 272 272 273 274 275 275 276 276 276 276 276 277 277 278 278 279 279 280 280 281 281 281 282 282 282 283 283 283 283 283 283 283 283 283 283 283 283 283 283 283 283 283 283 284 284 283 283 283 283 282 282 282 282 281 281 280 279 279 278 277 277 276 275 274 273 272 272 270 269 269 268 267 266 265
277 276 276 276 275 274 273 272 272 272 272 272 273 273 274 274 274 274 274 275 275 275 276 277 277 278 278 279 279 280 280 281 281 281 281 282 282 282 282 282 282 282 282 282 282 282 282 282 283 283 283 283 283 283 283 283 283 282 282 282 282 282 282 282 281 281 280 279 279 278 278 277 276 275 275 274 273 273 272 271 270 269 269 267 266
277 277 277 277 276 276 275 274 274 274 273 273 274 274 274 274 274 275 275 276 276 277 277 278 278 278 279 279 279 280 280 280 280 281 281 281 281 281 281 281 281 281 281 281 281 281 282 282 283 283 282 282 282 283 283 283 282 282 282 282 282 282 282 282 282 281 281 280 279 278 278 277 277 276 276 275 274 274 273 272 271 271 270 269 268
277 277 277 277 276 276 276 275 275 275 274 274 274 274 275 275 276 276 277 277 277 278 278 278 278 278 279 279 279 280 280 280 280 280 280 280 280 280 280 280 280 281 281 281 281 281 281 282 282 282 282 282 282 282 282 282 282 282 282 282 282 282 282 282 281 281 281 280 280 279 279 278 277 277 276 276 275 274 274 274 273 272 271 270 269
276 276 276 276 276 276 275 275 275 275 274 274 274 274 275 275 275 276 277 277 277 278 278 278 278 279 279 279 279 279 280 280 280 280 280 280 280 280 280 280 280 281 281 281 281 281 281 282 282 282 282 282 282 282 282 282 282 282 282 282 282 282 281 281 281 281 280 280 280 279 279 278 277 277 276 275 275 274 274 274 273 272 271 270 269
276 276 275 275 275 274 274 274 274 274 274 274 274 274 274 275 275 276 276 277 277 277 278 278 278 279 279 279 279 279 280 280 280 280 280 280 280 280 280 280 280 280 281 281 281 281 282 282 282 282 282 282 282 282 282 282 282 281 282 281 281 281 281 280 280 280 280 280 280 279 279 278 277 276 276 275 275 274 274 273 272 272 271 270 269
276 276 275 275 274 274 274 274 274 274 274 274 274 274 275 275 275 275 276 276 276 277 277 278 278 278 279 279 279 279 279 279 279 280 280 280 280 280 280 280 280 281 281 281 281 281 282 282 282 282 282 282 282 282 282 282 281 281 281 281 280 280 280 280 279 279 279 279 279 279 278 278 277 276 276 275 274 274 274 273 272 272 271 271 270
277 276 275 275 274 274 274 274 274 274 274 274 274 274 274 274 275 275 275 276 276 277 277 277 278 278 278 278 279 279 279 279 279 279 280 280 280 280 280 280 280 281 281 281 281 281 281 282 282 282 282 282 282 282 282 282 281 281 280 280 280 279 279 279 279 279 279 279 278 278 278 277 277 276 276 276 275 275 274 274 273 273 272 271 270
277 276 276 275 275 274 274 274 274 274 274 274 274 274 274 275 275 275 276 276 276 277 277 277 278 278 278 278 278 279 279 279 279 280 280 280 280 280 280 280 280 280 280 281 281 281 281 282 282 282 282 282 282 281 281 281 280 280 280 279 279 279 279 279 278 278 278 278 278 278 278 278 277 277 277 277 276 276 275 274 274 274 273 272 271
277 277 276 276 276 275 275 275 275 275 275 275 275 275 275 276 276 276 276 277 277 277 277 278 278 278 278 278 279 279 279 280 280 280 280 280 280 280 280 280 280 280 280 281 281 281 281 282 282 281 281 281 281 281 280 280 280 280 279 279 279 279 278 278 278 278 278 278 278 278 278 278 278 278 278 277 277 276 275 275 274 274 273 272 271
278 278 278 277 277 277 277 277 276 276 276 276 276 277 277 277 277 277 277 277 277 278 278 278 278 279 279 279 279 280 280 280 280 280 280 280 280 280 280 280 280 280 280 280 281 281 281 281 281 281 281 280 280 280 280 280 280 279 279 279 279 278 278 278 278 278 278 278 278 278 278 278 278 278 277 277 276 276 275 274 274 273 273 273 272
278 278 278 277 277 277 277 277 277 277 277 277 277 277 277 277 277 278 278 278 278 278 279 279 279 279 279 280 280 280 280 280 280 280 280 280 280 280 280 280 280 280 280 280 281 281 281 281 281 281 280 280 280 280 280 280 279 279 279 279 278 278 278 278 278 278 278 278 278 278 278 278 278 277 276 276 275 275 274 273 273 273 273 273 272
279 279 278 278 278 278 278 278 278 278 278 278 278 278 278 278 278 278 278 279 279 279 279 279 279 279 279 279 280 280 280 280 280 280 280 280 280 280 280 280 280 280 280 281 281 281 281 281 281 281 281 280 280 280 280 280 279 279 279 278 278 278 278 278 278 278 278 278 278 278 278 277 277 276 275 275 274 273 273 273 273 273 273 272 272
281 281 280 280 280 280 280 279 279 279 279 279 279 279 279 279 279 279 279 279 280 280 280 280 280 280 280 280 280 280 280 280 280 280 280 280 280 280 280 280 280 281 281 281 282 282 282 282 281 281 281 281 281 281 280 280 279 279 279 279 278 278 278 278 279 279 278 278 277 277 277 276 275 275 275 274 273 272 272 272 272 272 272 271 271
282 282 281 281 281 281 281 281 280 280 280 280 280 280 280 280 280 280 280 280 280 280 280 280 280 280 280 280 280 280 280 280 280 280 280 280 280 280 280 281 281 281 282 282 282 282 282 282 282 281 281 281 281 281 280 280 279 279 279 279 279 279 279 279 279 278 277 277 277 276 276 275 274 274 273 272 271 271 271 271 271 271 271 270 270
283 283 282 282 282 282 282 281 281 281 281 281 281 281 281 281 281 281 280 280 280 280 280 280 280 280 280 280 280 280 280 280 280 280 280 280 280 280 281 281 281 282 282 283 283 283 282 282 282 282 281 281 281 281 281 280 280 279 279 279 279 279 279 279 278 277 276 276 275 275 275 274 274 273 273 271 270 269 269 270 270 271 270 270 269
284 284 283 283 283 282 282 282 281 281 281 281 281 280 280 280 280 280 280 280 280 280 280 280 280 280 280 280 280 280 280 280 280 280 280 281 281 281 281 281 282 282 282 283 283 283 282 282 282 282 282 282 282 281 281 281 280 280 279 279 279 278 278 277 276 275 275 274 274 274 274 274 274 273 272 271 269 269 269 269 269 268 268 267 266
284 284 283 283 282 282 282 281 281 281 281 281 280 280 280 280 280 280 280 280 280 280 280 280 280 280 280 280 280 280 281 281 281 281 281 281 281 281 281 282 282 282 283 283 283 282 282 282 282 282 282 282 282 282 282 281 281 280 279 278 277 277 276 276 275 274 274 274 273 274 274 274 274 272 271 269 267 267 268 268 267 265 264 264 263
284 284 283 283 282 282 282 282 282 281 281 281 281 281 281 281 281 281 281 280 280 280 280 281 281 281 281 281 281 281 281 281 281 282 282 282 282 282 282 282 282 282 282 283 283 282 282 282 282 282 282 282 282 282 281 280 280 279 278 277 277 276 276 275 274 274 273 273 274 274 274 273 272 270 268 267 266 265 266 266 265 263 262 260 259
285 284 284 284 283 283 283 283 283 282 282 282 282 282 282 282 282 281 281 282 282 282 282 282 282 282 282 282 282 282 282 282 282 282 282 282 282 282 282 282 282 282 283 283 283 282 282 282 282 282 282 282 281 280 279 279 278 277 277 278 278 278 276 274 274 274 274 274 273 272 270 269 268 267 266 265 265 264 263 263 263 261 259 257 254
286 286 285 285 285 284 284 284 284 283 283 283 283 283 283 283 282 282 282 282 283 283 283 282 283 282 282 283 283 283 283 282 282 282 282 282 282 282 282 282 282 282 283 283 282 282 281 281 281 281 281 280 280 279 278 277 276 276 278 279 278 277 276 275 274 273 272 271 269 267 266 265 265 265 265 264 263 262 261 261 260 259 256 252 250
287 287 287 286 286 286 285 285 285 285 284 284 284 284 284 283 283 283 283 283 283 283 283 283 283 283 283 283 283 283 283 283 283 282 282 282 282 282 282 282 282 283 283 282 282 281 281 281 281 280 280 279 279 278 276 275 275 277 278 277 276 275 276 276 274 271 270 269 268 267 266 265 265 264 263 262 260 259 258 258 257 255 252 249 247
288 288 287 287 287 287 286 286 286 285 285 285 285 285 284 284 284 284 284 284 284 284 284 284 284 284 284 284 284 283 283 283 283 283 282 282 282 282 281 282 282 283 283 282 282 281 281 281 280 279 279 278 278 277 276 275 276 276 275 274 274 275 276 275 273 272 271 270 269 268 266 265 263 262 260 258 257 256 255 253 252 251 250 248 246
289 288 288 288 287 287 287 286 286 286 286 285 285 285 285 285 285 285 284 284 284 284 284 284 284 284 284 284 284 284 283 283 283 283 282 282 282 282 282 282 283 283 283 282 282 281 281 280 279 278 277 277 276 275 274 274 274 274 274 274 274 274 273 273 273 273 271 270 268 266 263 261 260 259 258 256 253 252 250 249 249 249 248 246 244
289 289 288 288 288 287 287 287 287 286 286 286 286 285 285 285 285 285 285 285 285 284 284 284 284 285 284 285 284 284 284 284 284 283 283 283 282 282 282 283 284 284 283 283 282 282 281 280 279 278 276 275 273 272 272 272 273 273 273 273 272 272 272 272 272 271 270 269 267 264 260 257 255 255 255 253 250 248 247 247 247 247 246 244 241
289 289 289 288 288 288 287 287 287 287 286 286 286 285 285 285 285 285 285 285 285 285 285 285 286 286 285 285 285 285 285 284 284 284 284 284 283 283 283 284 284 284 284 284 284 283 282 280 279 277 275 272 270 270 271 271 272 273 273 273 272 271 271 271 270 269 267 266 264 260 256 251 249 249 249 249 247 245 245 245 244 244 243 241 238
290 289 289 288 288 288 287 287 287 287 286 286 286 286 286 286 286 286 286 286 286 287 287 287 287 286 286 286 286 286 285 285 285 284 284 284 284 284 284 284 284 285 285 285 285 284 281 279 277 274 271 269 270 270 271 272 273 274 274 274 273 272 272 271 269 267 265 262 259 254 249 245 243 242 244 246 245 243 243 242 241 240 240 238 235
290 289 289 288 288 288 288 287 287 287 287 287 287 287 287 287 288 288 287 287 288 288 288 288 288 287 287 286 286 285 285 284 284 283 283 283 283 284 284 284 284 285 285 285 284 282 279 276 273 270 269 269 271 272 273 274 275 275 275 275 275 274 273 271 269 266 263 259 254 248 244 241 239 239 241 243 243 241 240 240 237 236 236 236 234
290 290 289 289 289 289 288 288 288 288 288 288 288 288 288 288 289 289 289 289 289 288 288 288 288 288 288 287 285 284 283 283 282 282 281 281 282 282 283 283 283 284 285 284 282 278 275 273 270 269 270 271 272 274 274 275 275 275 274 275 275 275 274 271 267 264 260 255 250 245 242 240 238 238 239 240 240 238 236 236 234 233 233 234 233
292 291 291 291 290 290 290 290 290 290 289 289 289 290 290 290 289 289 289 289 290 289 289 289 289 288 288 287 285 283 282 281 280 279 279 279 280 280 281 281 282 283 283 281 278 275 272 270 270 270 271 272 273 274 274 274 274 274 274 274 275 275 273 269 264 259 255 251 247 243 241 239 238 237 237 237 237 236 233 232 232 231 231 231 231
293 293 292 292 292 292 292 292 291 291 291 290 290 290 290 290 290 289 289 289 289 289 289 289 289 289 288 287 284 282 280 279 277 277 276 277 278 278 279 279 280 282 280 277 274 272 269 269 270 271 272 273 273 273 273 273 274 274 274 274 274 274 271 266 261 256 252 248 244 241 240 238 237 237 236 236 235 234 231 229 229 229 230 230 230
295 295 294 294 294 293 293 292 292 291 291 290 290 289 289 289 289 289 289 289 288 288 289 289 290 289 289 287 284 281 278 276 275 274 273 273 275 276 276 277 279 279 276 272 270 268 266 266 268 270 271 273 273 272 272 273 273 273 273 273 272 270 268 265 260 254 249 244 241 239 237 236 235 235 234 234 233 232 230 228 228 228 228 228 229
297 296 295 295 294 294 293 292 292 291 291 290 290 289 288 288 288 288 289 289 289 288 289 289 289 289 288 286 284 281 277 274 273 272 271 270 271 272 273 275 277 276 273 268 265 263 263 264 266 268 270 271 270 270 270 271 273 272 271 270 269 267 265 262 257 250 244 240 238 236 235 234 234 234 233 233 232 231 230 228 228 227 227 227 227
298 297 296 295 294 293 293 292 291 291 290 290 289 289 288 288 287 287 287 287 288 289 289 289 289 288 286 285 283 281 277 273 271 269 268 268 268 268 269 271 273 273 270 265 262 259 259 261 263 265 266 267 267 267 268 269 271 271 269 268 267 264 260 256 250 244 239 236 235 234 234 233 233 233 232 231 231 231 230 229 228 226 225 225 226
298 297 296 295 294 293 292 292 291 291 290 290 289 289 288 288 287 287 286 286 286 287 288 289 289 288 285 283 281 279 277 273 269 267 265 264 265 265 266 268 269 269 265 262 260 258 258 259 260 261 261 262 262 264 266 267 268 268 266 264 263 259 253 247 242 237 233 232 233 233 232 232 232 232 230 229 229 229 229 228 227 226 224 223 223
298 297 296 296 295 294 293 293 292 291 291 290 289 289 288 288 287 287 287 286 286 286 286 286 287 286 285 283 280 278 275 271 268 265 262 260 260 261 263 264 265 265 261 258 257 257 256 256 257 257 256 256 257 260 262 262 262 263 262 259 257 251 243 237 235 232 229 229 230 231 231 231 231 230 229 227 227 226 227 226 226 224 223 221 221
299 298 297 297 296 295 295 294 293 292 291 290 290 289 288 288 287 287 286 286 285 285 284 283 283 283 283 282 280 278 274 269 264 261 258 256 256 257 258 260 261 261 258 256 254 254 254 254 255 254 252 250 251 254 256 256 256 257 257 254 249 242 234 229 227 227 227 227 226 227 228 228 229 229 228 226 225 224 224 224 224 223 222 221 220
300 299 298 297 296 295 294 293 292 292 291 291 290 289 289 288 287 287 286 285 284 283 282 281 280 280 280 280 279 277 274 269 263 257 253 251 251 253 254 256 256 256 255 254 253 253 252 252 253 252 248 245 245 247 249 249 249 251 252 250 244 235 229 225 224 224 225 224 223 223 224 225 226 226 225 225 225 224 224 225 225 224 223 222 221
300 299 298 297 296 295 294 293 292 292 291 291 290 290 289 288 287 286 285 284 282 281 280 279 278 277 277 277 276 275 272 268 262 255 249 246 245 247 250 252 252 252 252 252 252 252 251 250 249 249 245 241 239 240 242 244 244 245 247 247 243 235 228 224 224 224 225 225 223 221 221 222 224 225 224 224 225 226 227 227 226 226 225 224 223
300 300 299 298 297 296 295 294 293 292 292 291 290 289 288 287 286 285 283 282 281 279 278 276 275 274 273 273 273 271 268 265 260 253 246 241 239 241 244 247 249 249 249 249 249 249 247 245 244 244 242 238 235 234 237 239 241 242 243 244 243 239 232 227 226 226 226 226 225 223 222 222 224 225 225 225 226 227 228 229 229 229 228 227 225
303 301 300 299 298 297 296 295 294 293 292 291 290 289 288 286 285 283 282 280 279 277 276 274 272 271 269 268 268 266 264 260 254 247 240 235 233 234 237 241 244 245 245 245 245 243 241 239 240 240 238 234 231 230 232 236 240 242 242 242 241 240 236 231 228 227 227 227 227 226 225 225 225 226 228 228 227 228 229 229 230 229 228 227 226
305 303 302 301 300 299 298 297 296 294 293 292 291 289 288 286 284 283 281 279 277 275 272 270 268 266 265 263 262 259 257 254 247 239 231 228 227 228 231 235 238 239 239 239 238 236 234 233 235 236 232 228 225 226 229 233 238 241 242 241 239 238 237 234 232 229 229 229 230 230 229 229 228 228 229 229 229 229 229 229 229 229 228 227 226
308 307 306 305 303 302 301 300 299 297 296 294 293 291 289 287 285 283 281 279 276 273 269 266 264 262 260 258 254 250 247 244 237 226 220 219 219 221 224 228 230 229 228 229 228 227 227 228 229 227 223 220 220 221 224 230 235 239 240 239 236 234 233 233 232 231 231 230 230 231 231 231 230 231 231 231 232 232 232 231 231 230 228 227 226
313 311 310 309 308 307 305 304 302 301 299 297 295 293 291 288 287 285 283 280 276 272 267 262 259 256 253 248 243 238 234 229 220 212 210 209 209 211 215 217 217 216 216 216 216 217 219 219 216 213 212 212 213 216 220 225 230 233 233 231 228 227 228 228 229 229 228 227 228 229 230 232 233 233 234 234 234 233 233 232 231 229 228 226 224
318 317 315 314 313 312 310 308 307 305 303 301 299 296 294 292 290 288 285 282 277 270 263 257 251 244 238 232 227 220 214 207 201 198 197 196 197 200 203 202 200 198 199 201 203 206 208 205 200 199 200 202 204 208 212 216 219 219 217 215 214 214 215 217 219 221 221 221 221 223 226 229 231 232 234 234 234 233 232 231 229 227 225 222 220
323 322 320 319 318 316 315 313 312 310 308 306 304 302 300 298 295 293 289 285 277 266 254 242 230 218 211 206 201 193 187 185 184 183 181 181 183 186 185 181 179 181 185 188 190 191 189 186 184 184 185 185 188 191 194 194 193 190 188 187 190 193 198 202 205 207 205 203 202 205 210 219 227 233 237 238 237 235 233 230 227 225 222 219 216
329 327 326 325 323 322 321 320 320 318 317 316 315 314 311 307 304 301 298 290 271 239 211 193 182 176 174 173 170 168 167 168 168 167 167 169 170 168 164 163 165 169 172 173 172 171 169 167 166 166 165 165 164 164 164 162 161 162 165 169 173 176 178 179 179 179 179 181 187 195 206 218 229 238 244 246 243 238 233 228 224 221 218 215 212
336 335 335 334 333 332 332 332 332 332 332 333 334 334 332 331 331 335 353 73 126 137 141 143 144 146 148 150 151 152 154 154 154 155 156 156 154 151 151 153 155 157 157 156 155 154 152 150 150 149 147 146 145 145 145 146 149 152 155 156 155 154 153 156 161 169 177 184 192 200 209 217 226 236 245 249 245 237 230 224 219 216 214 211 209
347 347 348 348 348 348 349 351 353 355 358 2 7 13 20 32 50 70 88 101 110 116 121 125 129 132 135 138 140 141 142 143 145 146 145 142 141 142 143 144 144 144 144 143 142 141 140 139 139 138 137 136 136 136 135 137 140 142 142 141 142 144 146 153 163 170 174 176 179 182 187 192 197 203 210 215 209 206 208 208 208 207 207 206 206
1 2 3 4 6 8 11 16 20 25 30 36 44 53 63 72 81 89 95 101 106 111 115 118 121 124 127 129 130 132 134 136 137 136 134 133 134 135 135 135 135 135 135 134 133 133 133 132 132 131 131 130 128 127 128 131 133 134 134 134 136 138 140 141 143 141 140 138 138 139 142 143 144 142 138 127 118 122 137 159 178 188 194 198 201
16 18 20 23 26 30 34 39 44 49 55 61 67 73 78 84 88 93 97 101 105 108 110 113 115 117 119 121 124 126 128 129 128 128 128 128 128 128 128 129 128 128 127 127 127 127 127 127 126 125 124 122 120 123 127 128 127 127 126 125 124 124 121 119 117 115 115 117 119 120 123 125 125 124 121 116 111 111 116 123 136 152 166 176 184